When you browse on this site, cookies collect data to enhance your experience and personalize the content and advertising you see.
Visit our Privacy Policy to learn more. By continuing to use the site, you agree to this use of cookies and data.
  • En España
  • Lista de países
  • Para 7 días
  • Temperatura del agua
  • El tiempo en el mapa
  • Informadores
  • user-avatar
    Iniciar sesión

    Tiempo cada hora Molepolole

    Hoy, 25 Febrero, Martes

    Tiempo Temperatura Precipitaciones Viento Presión Humedad
    00:00 +19°C° 0 mm 2 mps 666 mmHg 62%
    01:00 +18°C° 0 mm 2 mps 666 mmHg 63%
    02:00 +18°C° 0 mm 2 mps 666 mmHg 62%
    03:00 +18°C° 0 mm 2 mps 666 mmHg 64%
    04:00 +18°C° 0 mm 2 mps 665 mmHg 65%
    05:00 +18°C° 0 mm 3 mps 665 mmHg 66%
    06:00 +18°C° 0 mm 3 mps 666 mmHg 66%
    07:00 +18°C° 0 mm 4 mps 666 mmHg 65%
    08:00 +19°C° 0 mm 4 mps 667 mmHg 64%
    09:00 +21°C° 0 mm 5 mps 667 mmHg 58%
    10:00 +23°C° 0 mm 5 mps 668 mmHg 52%
    11:00 +26°C° 0 mm 5 mps 668 mmHg 46%
    12:00 +27°C° 0 mm 5 mps 668 mmHg 43%
    13:00 +28°C° 0 mm 5 mps 667 mmHg 40%
    14:00 +29°C° 0 mm 5 mps 667 mmHg 37%
    15:00 +29°C° 0 mm 4 mps 666 mmHg 38%
    16:00 +28°C° 0 mm 3 mps 666 mmHg 40%
    17:00 +28°C° 0 mm 3 mps 665 mmHg 41%
    18:00 +27°C° 0 mm 3 mps 665 mmHg 45%
    19:00 +25°C° 0 mm 2 mps 665 mmHg 49%
    20:00 +24°C° 0 mm 2 mps 665 mmHg 53%
    21:00 +23°C° 0 mm 2 mps 665 mmHg 56%
    22:00 +21°C° 0 mm 2 mps 665 mmHg 59%
    23:00 +21°C° 0 mm 2 mps 665 mmHg 61%

    Mañana, 26 Febrero, Miércoles

    Tiempo Temperatura Precipitaciones Viento Presión Humedad
    00:00 +20°C° 0 mm 2 mps 664 mmHg 63%
    01:00 +21°C° 0 mm 1 mps 664 mmHg 64%
    02:00 +21°C° 0 mm 1 mps 664 mmHg 65%
    03:00 +20°C° 0 mm 1 mps 664 mmHg 67%
    04:00 +20°C° 0 mm 1 mps 664 mmHg 68%
    05:00 +19°C° 0 mm 1 mps 664 mmHg 69%
    06:00 +19°C° 0 mm 2 mps 664 mmHg 63%
    07:00 +20°C° 0 mm 2 mps 665 mmHg 57%
    08:00 +21°C° 0 mm 3 mps 666 mmHg 51%
    09:00 +24°C° 0 mm 3 mps 666 mmHg 45%
    10:00 +26°C° 0 mm 3 mps 666 mmHg 39%
    11:00 +28°C° 0 mm 2 mps 667 mmHg 33%
    12:00 +30°C° 0 mm 3 mps 666 mmHg 30%
    13:00 +31°C° 0 mm 3 mps 666 mmHg 27%
    14:00 +33°C° 0 mm 3 mps 665 mmHg 23%
    15:00 +33°C° 0 mm 3 mps 665 mmHg 23%
    16:00 +33°C° 0 mm 3 mps 664 mmHg 23%
    17:00 +32°C° 0 mm 2 mps 664 mmHg 23%
    18:00 +31°C° 0 mm 2 mps 664 mmHg 26%
    19:00 +29°C° 0 mm 2 mps 664 mmHg 29%
    20:00 +27°C° 0 mm 2 mps 664 mmHg 32%
    21:00 +26°C° 0 mm 2 mps 664 mmHg 35%
    22:00 +25°C° 0 mm 2 mps 664 mmHg 38%
    23:00 +24°C° 0 mm 2 mps 664 mmHg 41%

    Pasado mañana, 27 Febrero, Jueves

    Tiempo Temperatura Precipitaciones Viento Presión Humedad
    00:00 +23°C° 0 mm 2 mps 664 mmHg 45%
    01:00 +23°C° 0 mm 2 mps 663 mmHg 48%
    02:00 +21°C° 0 mm 2 mps 663 mmHg 52%
    03:00 +22°C° 0 mm 1 mps 663 mmHg 54%
    04:00 +22°C° 0 mm 1 mps 663 mmHg 56%
    05:00 +21°C° 0 mm 1 mps 663 mmHg 58%
    06:00 +23°C° 0 mm 1 mps 664 mmHg 53%
    07:00 +24°C° 0 mm 1 mps 664 mmHg 49%
    08:00 +26°C° 0 mm 1 mps 665 mmHg 44%
    09:00 +28°C° 0 mm 1 mps 665 mmHg 38%
    10:00 +30°C° 0 mm 1 mps 666 mmHg 32%
    11:00 +33°C° 0 mm 1 mps 666 mmHg 26%
    12:00 +34°C° 0 mm 1 mps 666 mmHg 24%
    13:00 +34°C° 0 mm 1 mps 665 mmHg 22%
    14:00 +36°C° 0 mm 2 mps 665 mmHg 19%
    15:00 +36°C° 0 mm 2 mps 664 mmHg 20%
    16:00 +35°C° 0 mm 1 mps 664 mmHg 20%
    17:00 +35°C° 0 mm 1 mps 663 mmHg 20%
    18:00 +34°C° 0 mm 2 mps 663 mmHg 23%
    19:00 +31°C° 0 mm 2 mps 663 mmHg 25%
    20:00 +30°C° 0 mm 2 mps 663 mmHg 28%
    21:00 +29°C° 0 mm 2 mps 663 mmHg 30%
    22:00 +28°C° 0 mm 2 mps 663 mmHg 32%
    23:00 +26°C° 0 mm 1 mps 663 mmHg 34%

    28 Febrero, Viernes

    Tiempo Temperatura Precipitaciones Viento Presión Humedad
    00:00 +26°C° 0 mm 1 mps 663 mmHg 34%
    01:00 +26°C° 0 mm 2 mps 663 mmHg 34%
    02:00 +26°C° 0 mm 2 mps 663 mmHg 34%
    03:00 +26°C° 0 mm 2 mps 663 mmHg 36%
    04:00 +25°C° 0 mm 2 mps 663 mmHg 37%
    05:00 +24°C° 0 mm 1 mps 663 mmHg 39%
    06:00 +26°C° 0 mm 2 mps 664 mmHg 36%
    07:00 +27°C° 0 mm 3 mps 665 mmHg 33%
    08:00 +28°C° 0 mm 3 mps 665 mmHg 30%
    09:00 +30°C° 0 mm 4 mps 666 mmHg 26%
    10:00 +33°C° 0 mm 4 mps 666 mmHg 23%
    11:00 +35°C° 0 mm 5 mps 666 mmHg 19%
    12:00 +35°C° 0 mm 5 mps 666 mmHg 19%
    13:00 +36°C° 0 mm 4 mps 665 mmHg 19%
    14:00 +37°C° 0 mm 4 mps 665 mmHg 18%
    15:00 +37°C° 0 mm 4 mps 664 mmHg 19%
    16:00 +36°C° 0 mm 4 mps 664 mmHg 19%
    17:00 +36°C° 0 mm 4 mps 663 mmHg 19%
    18:00 +34°C° 0 mm 4 mps 663 mmHg 22%
    19:00 +33°C° 0 mm 4 mps 663 mmHg 25%
    20:00 +30°C° 0 mm 3 mps 664 mmHg 28%
    21:00 +29°C° 0 mm 4 mps 664 mmHg 30%
    22:00 +29°C° 0 mm 4 mps 664 mmHg 32%
    23:00 +28°C° 0 mm 5 mps 665 mmHg 34%

    29 Febrero, Sábado

    Tiempo Temperatura Precipitaciones Viento Presión Humedad
    00:00 +27°C° 0 mm 5 mps 665 mmHg 41%
    01:00 +26°C° 0 mm 6 mps 665 mmHg 47%
    02:00 +24°C° 0 mm 6 mps 665 mmHg 54%
    03:00 +24°C° 0 mm 6 mps 665 mmHg 58%
    04:00 +23°C° 0 mm 7 mps 665 mmHg 63%
    05:00 +23°C° 0 mm 7 mps 666 mmHg 67%
    06:00 +22°C° 0 mm 7 mps 666 mmHg 68%
    07:00 +22°C° 0 mm 7 mps 666 mmHg 68%
    08:00 +21°C° 0 mm 7 mps 667 mmHg 69%
    09:00 +22°C° 0 mm 7 mps 667 mmHg 65%
    10:00 +23°C° 0 mm 7 mps 667 mmHg 60%
    11:00 +24°C° 0 mm 7 mps 667 mmHg 55%
    12:00 +27°C° 0 mm 7 mps 667 mmHg 51%
    13:00 +28°C° 0 mm 7 mps 667 mmHg 46%
    14:00 +30°C° 0 mm 7 mps 667 mmHg 42%
    15:00 +30°C° 0 mm 6 mps 666 mmHg 42%
    16:00 +30°C° 0 mm 6 mps 665 mmHg 42%
    17:00 +29°C° 0 mm 6 mps 665 mmHg 42%
    18:00 +28°C° 0 mm 5 mps 664 mmHg 47%
    19:00 +26°C° 0 mm 4 mps 664 mmHg 51%
    20:00 +25°C° 0 mm 3 mps 664 mmHg 56%
    21:00 +24°C° 0 mm 3 mps 664 mmHg 57%
    22:00 +23°C° 0 mm 4 mps 664 mmHg 59%
    23:00 +22°C° 0 mm 4 mps 665 mmHg 60%

    1 Marzo, Domingo

    Tiempo Temperatura Precipitaciones Viento Presión Humedad
    00:00 +22°C° 0 mm 5 mps 664 mmHg 63%
    01:00 +21°C° 0 mm 5 mps 664 mmHg 67%
    02:00 +21°C° 0 mm 5 mps 664 mmHg 70%
    03:00 +20°C° 0 mm 5 mps 664 mmHg 73%
    04:00 +19°C° 0 mm 5 mps 664 mmHg 77%
    05:00 +19°C° 0 mm 5 mps 663 mmHg 80%
    06:00 +19°C° 0 mm 5 mps 664 mmHg 78%
    07:00 +20°C° 0 mm 4 mps 664 mmHg 76%
    08:00 +20°C° 0 mm 4 mps 664 mmHg 74%
    09:00 +22°C° 0 mm 3 mps 665 mmHg 66%
    10:00 +25°C° 0 mm 3 mps 665 mmHg 59%
    11:00 +27°C° 0 mm 2 mps 665 mmHg 51%
    12:00 +27°C° 0.5 mm 2 mps 665 mmHg 51%
    13:00 +27°C° 0.5 mm 1 mps 664 mmHg 52%
    14:00 +27°C° 0.5 mm 1 mps 663 mmHg 52%
    15:00 +26°C° 0.4 mm 1 mps 662 mmHg 56%
    16:00 +26°C° 0.4 mm 2 mps 661 mmHg 61%
    17:00 +25°C° 0.4 mm 3 mps 660 mmHg 65%
    18:00 +24°C° 0.2 mm 2 mps 660 mmHg 69%
    19:00 +23°C° 0.2 mm 2 mps 660 mmHg 74%
    20:00 +22°C° 0.2 mm 1 mps 660 mmHg 78%
    21:00 +22°C° 0.1 mm 1 mps 661 mmHg 77%
    22:00 +22°C° 0.1 mm 1 mps 661 mmHg 76%
    23:00 +21°C° 0.1 mm 1 mps 661 mmHg 76%
    Mostrar más